This is the latest recevied weather packets stored in our database for station/object N3LF. If no packets are shown the sender has not sent any weather packets the latest 10 day(s).
| Time | Temp. | Humidity | Pressure | Rain* | Wind** | Luminosity | Snow |
|---|---|---|---|---|---|---|---|
| 1788570433 | 28.89° C | 82% | 1016.3 hPa | 0 mm | - | 0 W/m² | - |
| 1788570129 | 28.89° C | 81% | 1016.2 hPa | 0 mm | - | 0 W/m² | - |
| 1788569826 | 28.89° C | 82% | 1016.2 hPa | 0 mm | - | 0 W/m² | - |
| 1788569521 | 28.89° C | 83% | 1016.3 hPa | 0 mm | - | 0 W/m² | - |
| 1788569221 | 28.89° C | 82% | 1016.1 hPa | 0 mm | - | 0 W/m² | - |
| 1788568916 | 29.44° C | 83% | 1016.3 hPa | 0 mm | - | 0 W/m² | - |
| 1788568611 | 29.44° C | 80% | 1016.4 hPa | 0 mm | - | 0 W/m² | - |
| 1788568307 | 30.56° C | 81% | 1016.1 hPa | 0 mm | - | 0 W/m² | - |
| 1788568003 | 30.56° C | 73% | 1015.8 hPa | 0 mm | - | 0 W/m² | - |
| 1788567703 | 30.56° C | 72% | 1015.8 hPa | 0 mm | - | 1 W/m² | - |
| 1788567398 | 31.11° C | 74% | 1016.2 hPa | 0 mm | - | 2 W/m² | - |
| 1788567097 | 31.11° C | 72% | 1015.9 hPa | 0 mm | - | 4 W/m² | - |
| 1788566793 | 32.22° C | 72% | 1015.9 hPa | 0 mm | - | 6 W/m² | - |
| 1788566489 | 32.22° C | 70% | 1016 hPa | 0 mm | - | 9 W/m² | - |
| 1788566188 | 32.78° C | 68% | 1016 hPa | 0 mm | - | 14 W/m² | - |
| 1788565888 | 33.33° C | 68% | 1016.1 hPa | 0 mm | - | 18 W/m² | - |
| 1788565583 | 33.33° C | 67% | 1015.9 hPa | 0 mm | - | 22 W/m² | - |
| 1788565279 | 34.44° C | 62% | 1016.1 hPa | 0 mm | - | 26 W/m² | - |
| 1788564974 | 35.56° C | 58% | 1015.9 hPa | 0 mm | - | 30 W/m² | - |
| 1788564670 | 36.11° C | 57% | 1015.9 hPa | 0 mm | - | 35 W/m² | - |
| 1788564367 | 36.11° C | 55% | 1015.8 hPa | 0 mm | - | 41 W/m² | - |
| 1788564063 | 35.56° C | 56% | 1015.6 hPa | 0 mm | - | 48 W/m² | - |
| 1788563758 | 36.11° C | 55% | 1015.6 hPa | 0 mm | - | 53 W/m² | - |
| 1788563458 | 36.67° C | 53% | 1015.7 hPa | 0 mm | - | 59 W/m² | - |
| 1788563157 | 36.67° C | 52% | 1015.6 hPa | 0 mm | - | 63 W/m² | - |
* Rain latest hour (hover to see other rain measurements)
** Current wind speed in m/s (hover to see current wind gust speed)